Regional Weather Roundup
Issued by NWS

Home | Current Version | Previous Version | Text Only | Print | Product List | Glossary Off
Versions: 1 2 3 4 5 6 7 8 9 10 11 12 13 14 15 16 17 18 19 20 21 22 23 24 25 26 27 28 29 30 31 32 33 34 35 36 37 38 39 40 41 42 43 44 45 46 47 48 49 50

000
ASUS45 KTFX 112319
RWRMT
MONTANA HOURLY WEATHER ROUNDUP
NATIONAL WEATHER SERVICE GREAT FALLS MT
519 PM MDT FRI JUL 11 2014

NOTE: "FAIR" INDICATES FEW OR NO CLOUDS BELOW 12000 FEET WITH NO
SIGNIFICANT WEATHER AND/OR OBSTRUCTIONS TO VISIBILITY.

* THESE STATIONS ARE NOT UNDER NWS QUALITY CONTROL. THEY DO NOT
   REPORT WEATHER SUCH AS PRECIPITATION OR FOG.

MTZ001>007-043-120000-
WEST OF THE DIVIDE
CITY           SKY/WX    TMP DP  RH WIND       PRES   REMARKS
KALISPELL      CLEAR     84  46  26 CALM      30.03F
MISSOULA       CLEAR     90  46  22 N15       29.99F
BUTTE          CLEAR     82  43  25 W5        30.11F
MULLAN PASS    PTCLDY    73  37  27 NW6       30.21S
* ESSEX        N/A       79  46  31 SE1        N/A
* LINCOLN      N/A       78  49  36 E6G14      N/A
* LOOKOUT PASS N/A       81  41  24 S3         N/A
* POLSON       N/A       82  42  24 N3         N/A
* RONAN APT    CLEAR     84  52  33 N7         N/A
* SEELEY LAKE  N/A       84  47  28 W5G14      N/A
* THOMP F APT  PTCLDY    82  42  24 W8G18      N/A
* YAAK HILL    N/A       91  49  24 S2         N/A
$$

MTZ008-052>055-120000-
SOUTHWEST MONTANA
CITY           SKY/WX    TMP DP  RH WIND       PRES   REMARKS
BOZEMAN        PTCLDY    84  50  31 CALM      30.07F
DILLON         PTCLDY    88  48  25 NE16      30.05F
W YELLOWSTONE  MOCLDY    68  39  35 NW9G24    30.22R
* THREE FORKS  PTCLDY    82  61  49 N/A        N/A   HI  83
* BOULDER HILL N/A       71  49  46 NE12G19    N/A
* MONIDA PASS  N/A       64  48  56 SW6G14     N/A
* RAYNOLDS PAS N/A       67   8  10 VRB13G19    N/A
* WHITEHALL    N/A       87  51  29 E7G16      N/A
* WISE RIVER   N/A       87  37  17 NW8G18     N/A
$$

MTZ009>010-012-014-046-048-049-054-120000-
EAST SLOPES AND CENTRAL MONTANA
CITY           SKY/WX    TMP DP  RH WIND       PRES   REMARKS
CUT BANK       CLEAR     75  48  39 VRB6      30.14F
GREAT FALLS    CLEAR     73  52  48 VRB3      30.12F
HELENA         CLEAR     82  52  35 NE5       30.07F
MALMSTROM AFB  CLEAR     73  54  51 VRB2      30.13F
* CONRAD       CLEAR     75  59  58 N/A        N/A
* DEARBORN     N/A       73  53  50 N11G17     N/A
* EAST GLACIER N/A       68  50  53 SE3G13     N/A
* MONARCH      N/A       71  46  41 N9G20      N/A
* ROGERS PASS  N/A       69  48  47 S4G9       N/A
* SAINT MARY   N/A       78  50  38 S5G15      N/A
* SWEET GRASS  N/A       72  48  43 E1G9       N/A
* WHITE SULPH  N/A       80  52  38 NE9G14     N/A
$$

MTZ011-013-016-021-035-040-045-047-050-051-120000-
NORTH CENTRAL MONTANA
CITY           SKY/WX    TMP DP  RH WIND       PRES   REMARKS
HAVRE          CLEAR     77  50  39 SE6       30.10F
LEWISTOWN      MOCLDY    81  50  34 NE9       30.13F
* FORT BENTON  CLEAR     81  52  37 CALM      30.10F
* CHESTER      N/A       75  47  37 SE4G9      N/A
* DENTON       N/A       81  53  38 NE4G14     N/A
* JUDITH GAP   N/A       79  50  36 NE9G15     N/A
* LOMA         N/A       77  53  43 NE4G11     N/A
$$

MTZ017>020-022>027-061-062-120000-
NORTHEAST MONTANA
CITY           SKY/WX    TMP DP  RH WIND       PRES   REMARKS
GLASGOW        CLEAR     79  48  34 CALM      30.09S
GLENDIVE       PTCLDY    79  52  39 NE9G17    30.11R
JORDAN         PTCLDY    81  54  39 NE6G16    30.11S
SIDNEY         CLEAR     81  54  39 E8        30.09F
WOLF POINT     CLEAR     82  46  28 N12G17    30.08S
* BEAVER HILL  N/A       76  51  42 N12G19     N/A
* CIRCLE       N/A       78  56  47 NE9        N/A
* LINDSAY DVD  N/A       73  56  55 N8G14      N/A
* NAVAJO       N/A       72  52  49 VRB15      N/A
$$

MTZ028>042-056>058-120000-
SOUTHCENTRAL AND SOUTHEAST MONTANA
CITY           SKY/WX    TMP DP  RH WIND       PRES   REMARKS
BAKER          PTCLDY    82  55  40 N12       30.10S HI  81
BILLINGS       MOCLDY    81  52  37 NE8G17    30.09F
LIVINGSTON     PTCLDY    79  54  42 E16       30.12S
MILES CITY     PTCLDY    82  54  38 NE16      30.06F
* LAUREL APT   MOCLDY    79  52  39 NE6        N/A
* ROUNDUP APT  CLEAR     82  48  31 N13        N/A
* ALZADA       N/A       81  60  49 NE11       N/A   HI  82
* HYSHAM       N/A       82  51  34 E11G19     N/A
* LAME DEER    N/A       80  51  36 N12        N/A
* REED POINT   N/A       83  57  41 SW2        N/A   HI  82
* ROSCOE HILL  N/A       63  54  73 SW6G11     N/A
$$

REGIONAL REPORTS...DAKOTAS
CITY           SKY/WX    TMP DP  RH WIND       PRES   REMARKS
WILLISTON      CLEAR     81  48  32 N10G18    30.07F
DICKINSON      FAIR      75  55  50 NE10      30.07S
CROSBY         CLEAR     72  54  53 NW16G21   30.08S
TIOGA          CLEAR     73  52  48 NW16      30.11S
WATFORD CITY   CLEAR     75  55  50 NW8       30.06S
BISMARCK       CLEAR     82  55  40 NW9       30.03R HI  81
GRAND FORKS    FAIR      84  55  37 NW17G24   29.91F
FARGO          CLEAR     86  63  46 N10       29.92S HI  87
BUFFALO SD     PTCLDY    82  57  43 NE16      30.02S HI  82
RAPID CITY     TSTM      66  63  90 SW15      30.09R VSB 1 3/4
$$

REGIONAL REPORTS...WYOMING/IDAHO/WASHINGTON
CITY           SKY/WX    TMP DP  RH WIND       PRES   REMARKS
GILLETTE       CLOUDY    72  59  64 S20G29    30.11S
SHERIDAN       MOCLDY    82  61  49 CALM      30.09R HI  83
CODY           CLOUDY   N/A N/A N/A N12       30.14F
YELLOWSTONE LA MOCLDY    70  48  46 VRB3      30.30S
SALMON         PTCLDY    93  39  15 N6        29.90F
MULLAN PASS    PTCLDY    73  37  27 NW6       30.21S
SAND POINT     CLEAR     86  50  29 E7        29.97F
SPOKANE        PTCLDY    91  36  14 NW7       29.98S
$$

REGIONAL REPORTS...ALBERTA
CITY           SKY/WX    TMP DP  RH WIND       PRES   REMARKS
CALGARY        FAIR      72  52  49 S8G22     30.13F
LETHBRIDGE     FAIR      70  52  53 SE9       30.13F
MEDICINE HAT   N/A       73  48  41 W6        30.12F
EDMONTON       FAIR      75  45  34 W9        30.08S
WATERTON GATE  N/A       70  54  57 NE6        N/A
CARDSTON       N/A       72  54  53 E6         N/A
MILK RIVER     N/A       72  50  46 E7         N/A
$$

REGIONAL REPORTS...SASKATCHEWAN
CITY           SKY/WX    TMP DP  RH WIND       PRES   REMARKS
SWIFT CURRENT  CLEAR     68  52  57 NW10      30.11F
MOOSE JAW      N/A       72  48  43 NW14      30.09S
REGINA         N/A       72  50  46 NW16G23   30.07F
VAL MARIE      N/A       72  52  49 N7         N/A
ASSINIBOIA     N/A       70  48  46 NW10       N/A
CORONACH       N/A       70  52  53 NW10G17    N/A

$$




USA.gov is the U.S. government's official web portal to all federal, state and local government web resources and services.